Time,TemperatureF,DewpointF,PressureIn,WindDirection,WindDirectionDegrees,WindSpeedMPH,WindSpeedGustMPH,Humidity,HourlyPrecipIn,Conditions,Clouds,dailyrainin,SoftwareType,DateUTC
2013-09-04 00:01:00,61.5,57.9,29.80,NNW,341,0.0,1.0,88,0.00,,,0.01,meteohub,2013-09-04 04:01:00,
2013-09-04 00:02:00,61.5,57.9,29.80,NNW,341,0.0,1.0,88,0.00,,,0.01,meteohub,2013-09-04 04:02:00,
2013-09-04 00:07:00,61.5,58.3,29.80,NNW,341,0.0,1.0,89,0.00,,,0.00,meteohub,2013-09-04 04:07:00,
2013-09-04 00:12:00,61.3,58.1,29.81,NNW,341,0.0,1.0,89,0.00,,,0.00,meteohub,2013-09-04 04:12:00,
2013-09-04 00:17:00,61.3,57.7,29.81,NNW,341,0.0,1.0,88,0.00,,,0.00,meteohub,2013-09-04 04:17:00,
2013-09-04 00:22:00,61.3,58.5,29.81,NNW,341,0.0,1.0,90,0.00,,,0.00,meteohub,2013-09-04 04:22:00,
2013-09-04 00:27:00,61.5,57.9,29.81,NNW,341,0.0,1.0,88,0.00,,,0.00,meteohub,2013-09-04 04:27:00,
2013-09-04 00:32:00,61.5,57.9,29.81,NNW,341,0.0,1.0,88,0.00,,,0.00,meteohub,2013-09-04 04:32:00,
2013-09-04 00:37:00,61.5,58.3,29.81,NNW,341,0.0,1.0,89,0.00,,,0.00,meteohub,2013-09-04 04:37:00,
2013-09-04 00:42:00,61.5,57.9,29.81,NNW,341,0.0,1.0,88,0.00,,,0.00,meteohub,2013-09-04 04:42:00,
2013-09-04 00:47:00,61.7,58.1,29.80,NNW,341,0.0,0.0,88,0.00,,,0.00,meteohub,2013-09-04 04:47:00,
2013-09-04 00:52:00,61.7,58.1,29.80,North,354,0.0,1.0,88,0.00,,,0.00,meteohub,2013-09-04 04:52:00,
2013-09-04 00:57:00,61.5,57.6,29.80,North,354,0.0,1.0,87,0.00,,,0.00,meteohub,2013-09-04 04:57:00,
2013-09-04 01:02:00,61.7,57.7,29.81,ENE,61,0.0,1.0,87,0.00,,,0.00,meteohub,2013-09-04 05:02:00,
2013-09-04 01:07:00,61.5,57.4,29.80,ENE,61,0.0,1.0,86,0.00,,,0.00,meteohub,2013-09-04 05:07:00,
2013-09-04 01:12:00,61.3,57.4,29.80,ENE,61,0.0,1.0,87,0.00,,,0.00,meteohub,2013-09-04 05:12:00,
2013-09-04 01:17:00,61.2,57.2,29.80,ENE,61,0.0,1.0,87,0.00,,,0.00,meteohub,2013-09-04 05:17:00,
2013-09-04 01:22:00,61.0,57.0,29.80,ENE,61,0.0,1.0,87,0.00,,,0.00,meteohub,2013-09-04 05:22:00,
2013-09-04 01:27:00,61.0,57.4,29.80,North,5,0.0,1.0,88,0.00,,,0.00,meteohub,2013-09-04 05:27:00,
2013-09-04 01:32:00,61.0,57.4,29.80,NNW,343,1.0,3.0,88,0.00,,,0.00,meteohub,2013-09-04 05:32:00,
2013-09-04 01:37:00,61.2,57.6,29.81,NNW,345,0.0,3.0,88,0.00,,,0.00,meteohub,2013-09-04 05:37:00,
2013-09-04 01:42:00,61.2,57.2,29.80,North,350,0.0,3.0,87,0.00,,,0.00,meteohub,2013-09-04 05:42:00,
2013-09-04 01:47:00,61.3,57.7,29.80,NNW,345,2.0,3.0,88,0.00,,,0.00,meteohub,2013-09-04 05:47:00,
2013-09-04 01:52:00,61.5,57.6,29.80,NNW,328,1.0,3.0,87,0.00,,,0.00,meteohub,2013-09-04 05:52:00,
2013-09-04 01:57:00,61.9,57.9,29.80,NNW,343,1.0,4.0,87,0.00,,,0.00,meteohub,2013-09-04 05:57:00,
2013-09-04 02:02:00,61.9,58.3,29.81,NNW,332,2.0,4.0,88,0.00,,,0.00,meteohub,2013-09-04 06:02:00,
2013-09-04 02:07:00,61.9,57.9,29.80,NNW,348,1.0,4.0,87,0.00,,,0.00,meteohub,2013-09-04 06:07:00,
2013-09-04 02:12:00,61.9,57.6,29.80,NW,316,1.0,4.0,86,0.00,,,0.00,meteohub,2013-09-04 06:12:00,
2013-09-04 02:17:00,61.9,57.9,29.80,NNW,328,1.0,3.0,87,0.00,,,0.00,meteohub,2013-09-04 06:17:00,
2013-09-04 02:22:00,62.1,57.7,29.80,WNW,292,1.0,3.0,86,0.00,,,0.00,meteohub,2013-09-04 06:22:00,
2013-09-04 02:27:00,62.1,58.1,29.80,NNE,14,0.0,5.0,87,0.00,,,0.00,meteohub,2013-09-04 06:27:00,
2013-09-04 02:32:00,62.2,57.7,29.80,NW,323,0.0,5.0,85,0.00,,,0.00,meteohub,2013-09-04 06:32:00,
2013-09-04 02:37:00,62.2,57.9,29.80,NW,323,1.0,5.0,86,0.00,,,0.00,meteohub,2013-09-04 06:37:00,
2013-09-04 02:42:00,62.4,57.6,29.80,NW,304,0.0,3.0,84,0.00,,,0.00,meteohub,2013-09-04 06:42:00,
2013-09-04 02:47:00,62.2,57.7,29.80,SE,130,1.0,3.0,85,0.00,,,0.00,meteohub,2013-09-04 06:47:00,
2013-09-04 02:52:00,62.2,57.7,29.80,WNW,294,2.0,3.0,85,0.00,,,0.00,meteohub,2013-09-04 06:52:00,
2013-09-04 02:57:00,62.1,57.7,29.80,NW,320,1.0,4.0,86,0.00,,,0.00,meteohub,2013-09-04 06:57:00,
2013-09-04 03:02:00,61.9,57.9,29.80,North,359,1.0,4.0,87,0.00,,,0.00,meteohub,2013-09-04 07:02:00,
2013-09-04 03:07:00,61.9,57.9,29.80,North,355,2.0,7.0,87,0.00,,,0.00,meteohub,2013-09-04 07:07:00,
2013-09-04 03:12:00,61.9,57.9,29.80,NNW,340,2.0,7.0,87,0.00,,,0.00,meteohub,2013-09-04 07:12:00,
2013-09-04 03:17:00,61.7,58.1,29.80,NNW,332,2.0,7.0,88,0.00,,,0.00,meteohub,2013-09-04 07:17:00,
2013-09-04 03:22:00,61.7,58.5,29.81,NNW,344,3.0,6.0,89,0.00,,,0.00,meteohub,2013-09-04 07:22:00,
2013-09-04 03:27:00,61.3,58.1,29.81,NNW,328,4.0,6.0,89,0.00,,,0.00,meteohub,2013-09-04 07:27:00,
2013-09-04 03:32:00,61.2,58.3,29.81,NNW,340,2.0,6.0,90,0.00,,,0.00,meteohub,2013-09-04 07:32:00,
2013-09-04 03:37:00,60.8,57.9,29.81,North,0,1.0,6.0,90,0.00,,,0.00,meteohub,2013-09-04 07:37:00,
2013-09-04 03:42:00,61.0,58.1,29.81,NNW,334,3.0,6.0,90,0.00,,,0.00,meteohub,2013-09-04 07:42:00,
2013-09-04 03:47:00,61.0,58.1,29.81,NNW,327,3.0,7.0,90,0.00,,,0.00,meteohub,2013-09-04 07:47:00,
2013-09-04 03:52:00,61.0,57.7,29.81,NNW,341,1.0,7.0,89,0.00,,,0.00,meteohub,2013-09-04 07:52:00,
2013-09-04 03:57:00,61.0,58.1,29.81,NW,313,0.0,7.0,90,0.00,,,0.00,meteohub,2013-09-04 07:57:00,
2013-09-04 04:02:00,61.2,58.3,29.81,NNW,340,0.0,5.0,90,0.00,,,0.00,meteohub,2013-09-04 08:02:00,
2013-09-04 04:07:00,61.2,57.9,29.81,NNE,32,2.0,5.0,89,0.00,,,0.00,meteohub,2013-09-04 08:07:00,
2013-09-04 04:12:00,61.3,58.5,29.82,NW,318,2.0,5.0,90,0.00,,,0.00,meteohub,2013-09-04 08:12:00,
2013-09-04 04:17:00,61.3,58.1,29.82,WNW,299,3.0,5.0,89,0.00,,,0.00,meteohub,2013-09-04 08:17:00,
2013-09-04 04:22:00,61.3,58.5,29.82,NNW,336,1.0,5.0,90,0.00,,,0.00,meteohub,2013-09-04 08:22:00,
2013-09-04 04:27:00,61.3,58.5,29.82,West,276,3.0,5.0,90,0.00,,,0.00,meteohub,2013-09-04 08:27:00,
2013-09-04 04:32:00,61.3,58.5,29.82,North,357,1.0,4.0,90,0.00,,,0.00,meteohub,2013-09-04 08:32:00,
2013-09-04 04:37:00,61.3,58.1,29.83,NW,325,0.0,4.0,89,0.00,,,0.00,meteohub,2013-09-04 08:37:00,
2013-09-04 04:42:00,61.3,58.5,29.83,NW,325,0.0,4.0,90,0.00,,,0.00,meteohub,2013-09-04 08:42:00,
2013-09-04 04:47:00,61.3,58.1,29.83,NW,324,1.0,3.0,89,0.00,,,0.00,meteohub,2013-09-04 08:47:00,
2013-09-04 04:52:00,61.3,58.5,29.83,NW,324,0.0,3.0,90,0.00,,,0.00,meteohub,2013-09-04 08:52:00,
2013-09-04 04:57:00,61.3,58.5,29.83,NNW,331,2.0,2.0,90,0.00,,,0.00,meteohub,2013-09-04 08:57:00,
2013-09-04 05:02:00,61.3,58.1,29.83,NW,315,2.0,2.0,89,0.00,,,0.00,meteohub,2013-09-04 09:02:00,
2013-09-04 05:07:00,61.3,58.5,29.83,NW,313,0.0,3.0,90,0.00,,,0.00,meteohub,2013-09-04 09:07:00,
2013-09-04 05:12:00,61.3,58.5,29.83,NNE,16,0.0,3.0,90,0.00,,,0.00,meteohub,2013-09-04 09:12:00,
2013-09-04 05:17:00,61.3,58.5,29.83,NNW,343,1.0,4.0,90,0.00,,,0.00,meteohub,2013-09-04 09:17:00,
2013-09-04 05:22:00,61.3,58.5,29.83,NNW,338,2.0,6.0,90,0.00,,,0.00,meteohub,2013-09-04 09:22:00,
2013-09-04 05:27:00,61.2,57.9,29.83,North,351,0.0,6.0,89,0.00,,,0.00,meteohub,2013-09-04 09:27:00,
2013-09-04 05:32:00,61.2,57.9,29.84,NNW,332,0.0,4.0,89,0.00,,,0.00,meteohub,2013-09-04 09:32:00,
2013-09-04 05:37:00,61.0,58.1,29.84,NW,306,1.0,4.0,90,0.00,,,0.00,meteohub,2013-09-04 09:37:00,
2013-09-04 05:42:00,60.8,57.9,29.84,NNW,347,0.0,4.0,90,0.00,,,0.00,meteohub,2013-09-04 09:42:00,
2013-09-04 05:47:00,60.8,57.9,29.84,NNW,328,2.0,3.0,90,0.00,,,0.00,meteohub,2013-09-04 09:47:00,
2013-09-04 05:52:00,60.6,57.7,29.85,NW,309,0.0,4.0,90,0.00,,,0.00,meteohub,2013-09-04 09:52:00,
2013-09-04 05:57:00,60.6,57.9,29.85,NW,309,1.0,4.0,91,0.00,,,0.00,meteohub,2013-09-04 09:57:00,
2013-09-04 06:02:00,60.6,57.9,29.85,NNW,343,1.0,3.0,91,0.00,,,0.00,meteohub,2013-09-04 10:02:00,
2013-09-04 06:07:00,60.6,57.7,29.85,NNW,338,2.0,3.0,90,0.00,,,0.00,meteohub,2013-09-04 10:07:00,
2013-09-04 06:12:00,60.6,57.9,29.85,NNW,341,1.0,3.0,91,0.00,,,0.00,meteohub,2013-09-04 10:12:00,
2013-09-04 06:17:00,60.4,58.1,29.85,NNW,341,0.0,3.0,92,0.00,,,0.00,meteohub,2013-09-04 10:17:00,
2013-09-04 06:22:00,60.4,58.1,29.85,NNW,341,0.0,3.0,92,0.00,,,0.00,meteohub,2013-09-04 10:22:00,
2013-09-04 06:27:00,60.3,57.6,29.85,NNW,341,0.0,2.0,91,0.00,,,0.00,meteohub,2013-09-04 10:27:00,
2013-09-04 06:32:00,60.1,57.4,29.85,NNW,341,0.0,2.0,91,0.00,,,0.00,meteohub,2013-09-04 10:32:00,
2013-09-04 06:37:00,60.1,57.4,29.85,NNW,341,0.0,2.0,91,0.00,,,0.00,meteohub,2013-09-04 10:37:00,
2013-09-04 06:42:00,59.7,57.4,29.85,NNW,329,3.0,3.0,92,0.00,,,0.00,meteohub,2013-09-04 10:42:00,
2013-09-04 06:47:00,60.1,57.4,29.86,NNW,344,3.0,6.0,91,0.00,,,0.00,meteohub,2013-09-04 10:47:00,
2013-09-04 06:52:00,60.3,57.4,29.86,North,349,2.0,6.0,90,0.00,,,0.00,meteohub,2013-09-04 10:52:00,
2013-09-04 06:57:00,60.4,57.6,29.86,NNW,342,2.0,6.0,90,0.00,,,0.00,meteohub,2013-09-04 10:57:00,
2013-09-04 07:02:00,60.4,57.2,29.86,NNW,339,2.0,6.0,89,0.00,,,0.00,meteohub,2013-09-04 11:02:00,
2013-09-04 07:07:00,60.3,57.0,29.86,NNW,347,1.0,6.0,89,0.00,,,0.00,meteohub,2013-09-04 11:07:00,
2013-09-04 07:12:00,60.4,57.2,29.86,NNW,347,0.0,6.0,89,0.00,,,0.00,meteohub,2013-09-04 11:12:00,
2013-09-04 07:17:00,60.8,57.2,29.86,North,357,1.0,4.0,88,0.00,,,0.00,meteohub,2013-09-04 11:17:00,
2013-09-04 07:22:00,61.2,57.2,29.86,North,350,3.0,5.0,87,0.00,,,0.00,meteohub,2013-09-04 11:22:00,
2013-09-04 07:27:00,61.5,57.0,29.85,NNW,343,5.0,6.0,85,0.00,,,0.00,meteohub,2013-09-04 11:27:00,
2013-09-04 07:32:00,61.5,57.4,29.85,NW,316,2.0,7.0,86,0.00,,,0.00,meteohub,2013-09-04 11:32:00,
2013-09-04 07:37:00,61.3,57.4,29.86,NW,306,4.0,7.0,87,0.00,,,0.00,meteohub,2013-09-04 11:37:00,
2013-09-04 07:42:00,61.3,57.7,29.86,NNW,347,2.0,7.0,88,0.00,,,0.00,meteohub,2013-09-04 11:42:00,
2013-09-04 07:47:00,61.5,57.6,29.86,NNW,340,3.0,6.0,87,0.00,,,0.00,meteohub,2013-09-04 11:47:00,
2013-09-04 07:52:00,61.7,58.5,29.85,NW,311,5.0,6.0,89,0.00,,,0.00,meteohub,2013-09-04 11:52:00,
2013-09-04 07:57:00,61.9,57.4,29.85,NNW,337,3.0,7.0,85,0.00,,,0.00,meteohub,2013-09-04 11:57:00,
2013-09-04 08:02:00,62.1,56.8,29.85,NNW,346,1.0,8.0,83,0.00,,,0.00,meteohub,2013-09-04 12:02:00,
2013-09-04 08:07:00,62.2,57.7,29.85,North,355,1.0,8.0,85,0.00,,,0.00,meteohub,2013-09-04 12:07:00,
2013-09-04 08:12:00,62.4,58.1,29.85,NNW,347,3.0,8.0,86,0.00,,,0.00,meteohub,2013-09-04 12:12:00,
2013-09-04 08:17:00,62.8,57.9,29.86,NNW,337,3.0,4.0,84,0.00,,,0.00,meteohub,2013-09-04 12:17:00,
2013-09-04 08:22:00,62.8,57.9,29.86,North,357,1.0,4.0,84,0.00,,,0.00,meteohub,2013-09-04 12:22:00,
2013-09-04 08:27:00,63.1,57.9,29.85,NNW,340,2.0,4.0,83,0.00,,,0.00,meteohub,2013-09-04 12:27:00,
2013-09-04 08:32:00,63.3,57.7,29.85,NNE,18,3.0,5.0,82,0.00,,,0.00,meteohub,2013-09-04 12:32:00,
2013-09-04 08:37:00,63.7,58.1,29.85,NNW,336,2.0,9.0,82,0.00,,,0.00,meteohub,2013-09-04 12:37:00,
2013-09-04 08:42:00,63.9,56.8,29.85,WNW,294,7.0,9.0,78,0.00,,,0.00,meteohub,2013-09-04 12:42:00,
2013-09-04 08:47:00,64.0,56.7,29.85,North,356,9.0,13.0,77,0.00,,,0.00,meteohub,2013-09-04 12:47:00,
2013-09-04 08:52:00,64.2,56.1,29.86,NNW,338,10.0,20.0,75,0.00,,,0.00,meteohub,2013-09-04 12:52:00,
2013-09-04 08:57:00,64.4,57.0,29.86,NNW,346,7.0,20.0,77,0.00,,,0.00,meteohub,2013-09-04 12:57:00,
2013-09-04 09:02:00,64.6,57.2,29.86,NNW,343,3.0,20.0,77,0.00,,,0.00,meteohub,2013-09-04 13:02:00,
2013-09-04 09:07:00,64.8,57.0,29.86,NNW,338,7.0,13.0,76,0.00,,,0.00,meteohub,2013-09-04 13:07:00,
2013-09-04 09:12:00,64.9,56.8,29.86,NW,315,9.0,10.0,75,0.00,,,0.00,meteohub,2013-09-04 13:12:00,
2013-09-04 09:17:00,64.9,56.5,29.87,NNW,328,6.0,14.0,74,0.00,,,0.00,meteohub,2013-09-04 13:17:00,
2013-09-04 09:22:00,65.3,57.6,29.87,NNW,339,2.0,14.0,76,0.00,,,0.00,meteohub,2013-09-04 13:22:00,
2013-09-04 09:27:00,65.5,57.0,29.87,NNW,338,4.0,14.0,74,0.00,,,0.00,meteohub,2013-09-04 13:27:00,
2013-09-04 09:32:00,65.7,56.3,29.87,NNW,338,1.0,8.0,72,0.00,,,0.00,meteohub,2013-09-04 13:32:00,
2013-09-04 09:37:00,65.7,55.2,29.87,NNW,336,5.0,8.0,69,0.00,,,0.00,meteohub,2013-09-04 13:37:00,
2013-09-04 09:42:00,65.7,55.2,29.87,NNW,342,6.0,9.0,69,0.00,,,0.00,meteohub,2013-09-04 13:42:00,
2013-09-04 09:47:00,65.8,55.4,29.87,North,359,9.0,9.0,69,0.00,,,0.00,meteohub,2013-09-04 13:47:00,
2013-09-04 09:52:00,65.8,55.4,29.87,NNW,341,5.0,13.0,69,0.00,,,0.00,meteohub,2013-09-04 13:52:00,
2013-09-04 09:57:00,66.0,56.3,29.86,North,351,1.0,13.0,71,0.00,,,0.00,meteohub,2013-09-04 13:57:00,
2013-09-04 10:02:00,66.4,55.6,29.86,NNW,335,3.0,13.0,68,0.00,,,0.00,meteohub,2013-09-04 14:02:00,
2013-09-04 10:07:00,66.6,54.9,29.86,WNW,301,7.0,9.0,66,0.00,,,0.00,meteohub,2013-09-04 14:07:00,
2013-09-04 10:12:00,66.6,54.9,29.86,NE,46,2.0,10.0,66,0.00,,,0.00,meteohub,2013-09-04 14:12:00,
2013-09-04 10:17:00,66.7,54.7,29.86,NW,320,5.0,11.0,65,0.00,,,0.00,meteohub,2013-09-04 14:17:00,
2013-09-04 10:22:00,66.7,52.9,29.86,SSW,194,0.0,11.0,61,0.00,,,0.00,meteohub,2013-09-04 14:22:00,
2013-09-04 10:27:00,66.9,54.9,29.86,North,353,5.0,13.0,65,0.00,,,0.00,meteohub,2013-09-04 14:27:00,
2013-09-04 10:32:00,67.3,54.3,29.86,NNW,337,15.0,15.0,63,0.00,,,0.00,meteohub,2013-09-04 14:32:00,
2013-09-04 10:37:00,66.9,54.0,29.87,East,90,4.0,17.0,63,0.00,,,0.00,meteohub,2013-09-04 14:37:00,
2013-09-04 10:42:00,66.9,54.0,29.86,NNW,347,4.0,17.0,63,0.00,,,0.00,meteohub,2013-09-04 14:42:00,
2013-09-04 10:46:00,66.9,53.4,29.87,WSW,257,3.0,17.0,62,0.00,,,0.00,meteohub,2013-09-04 14:46:00,
2013-09-04 10:51:00,66.9,54.9,29.87,North,351,4.0,15.0,65,0.00,,,0.00,meteohub,2013-09-04 14:51:00,
2013-09-04 10:56:00,67.1,54.5,29.86,NW,314,6.0,15.0,64,0.00,,,0.00,meteohub,2013-09-04 14:56:00,
2013-09-04 11:01:00,67.3,55.0,29.86,NW,310,0.0,15.0,65,0.00,,,0.00,meteohub,2013-09-04 15:01:00,
2013-09-04 11:06:00,67.5,56.1,29.86,WNW,303,4.0,11.0,67,0.00,,,0.00,meteohub,2013-09-04 15:06:00,
2013-09-04 11:11:00,67.6,54.7,29.86,NNW,342,3.0,11.0,63,0.00,,,0.00,meteohub,2013-09-04 15:11:00,
2013-09-04 11:16:00,67.8,55.2,29.86,NW,319,1.0,12.0,64,0.00,,,0.00,meteohub,2013-09-04 15:16:00,
2013-09-04 11:21:00,68.4,54.3,29.86,SW,230,2.0,12.0,61,0.00,,,0.00,meteohub,2013-09-04 15:21:00,
2013-09-04 11:26:00,68.5,54.1,29.86,North,351,6.0,12.0,60,0.00,,,0.00,meteohub,2013-09-04 15:26:00,
2013-09-04 11:31:00,68.7,53.8,29.86,WNW,297,1.0,16.0,59,0.00,,,0.00,meteohub,2013-09-04 15:31:00,
2013-09-04 11:36:00,68.5,54.5,29.86,NNW,348,10.0,16.0,61,0.00,,,0.00,meteohub,2013-09-04 15:36:00,
2013-09-04 11:41:00,68.5,53.6,29.86,NNW,330,4.0,16.0,59,0.00,,,0.00,meteohub,2013-09-04 15:41:00,
2013-09-04 11:46:00,69.3,53.8,29.86,North,353,6.0,16.0,58,0.00,,,0.00,meteohub,2013-09-04 15:46:00,
2013-09-04 11:51:00,69.6,54.1,29.86,NNW,339,3.0,15.0,58,0.00,,,0.00,meteohub,2013-09-04 15:51:00,
2013-09-04 11:56:00,69.4,54.0,29.86,North,352,4.0,10.0,58,0.00,,,0.00,meteohub,2013-09-04 15:56:00,
2013-09-04 12:01:00,69.4,54.5,29.86,NNW,343,2.0,10.0,59,0.00,,,0.00,meteohub,2013-09-04 16:01:00,
2013-09-04 12:06:00,69.4,55.4,29.86,NNW,329,3.0,11.0,61,0.00,,,0.00,meteohub,2013-09-04 16:06:00,
2013-09-04 12:11:00,69.6,54.7,29.86,NNW,340,6.0,18.0,59,0.00,,,0.00,meteohub,2013-09-04 16:11:00,
2013-09-04 12:16:00,69.3,55.2,29.87,NNW,341,5.0,21.0,61,0.00,,,0.00,meteohub,2013-09-04 16:16:00,
2013-09-04 12:21:00,69.1,55.0,29.86,NNW,335,7.0,21.0,61,0.00,,,0.00,meteohub,2013-09-04 16:21:00,
2013-09-04 12:26:00,69.1,55.9,29.87,NNW,339,3.0,21.0,63,0.00,,,0.00,meteohub,2013-09-04 16:26:00,
2013-09-04 12:31:00,68.9,55.8,29.86,NNE,21,0.0,14.0,63,0.00,,,0.00,meteohub,2013-09-04 16:31:00,
2013-09-04 12:36:00,69.4,57.6,29.86,NNW,336,6.0,12.0,66,0.00,,,0.00,meteohub,2013-09-04 16:36:00,
2013-09-04 12:41:00,69.3,56.1,29.86,NNW,332,4.0,9.0,63,0.00,,,0.00,meteohub,2013-09-04 16:41:00,
2013-09-04 12:46:00,69.4,56.3,29.86,NNW,340,12.0,12.0,63,0.00,,,0.00,meteohub,2013-09-04 16:46:00,
2013-09-04 12:51:00,70.0,55.9,29.86,WSW,243,1.0,15.0,61,0.00,,,0.00,meteohub,2013-09-04 16:51:00,
2013-09-04 12:56:00,70.2,56.5,29.86,NNW,327,2.0,15.0,62,0.00,,,0.00,meteohub,2013-09-04 16:56:00,
2013-09-04 13:01:00,70.3,55.4,29.86,NW,318,12.0,15.0,59,0.00,,,0.00,meteohub,2013-09-04 17:01:00,
2013-09-04 13:06:00,70.0,55.9,29.86,NNW,333,4.0,14.0,61,0.00,,,0.00,meteohub,2013-09-04 17:06:00,
2013-09-04 13:11:00,70.3,55.8,29.86,West,271,3.0,14.0,60,0.00,,,0.00,meteohub,2013-09-04 17:11:00,
2013-09-04 13:16:00,70.3,55.8,29.86,West,275,4.0,14.0,60,0.00,,,0.00,meteohub,2013-09-04 17:16:00,
2013-09-04 13:21:00,70.3,55.8,29.86,NW,317,5.0,10.0,60,0.00,,,0.00,meteohub,2013-09-04 17:21:00,
2013-09-04 13:26:00,70.5,55.9,29.86,North,0,5.0,14.0,60,0.00,,,0.00,meteohub,2013-09-04 17:26:00,
2013-09-04 13:31:00,70.7,55.6,29.86,WSW,241,1.0,14.0,59,0.00,,,0.00,meteohub,2013-09-04 17:31:00,
2013-09-04 13:36:00,71.1,55.9,29.85,NNW,340,3.0,14.0,59,0.00,,,0.00,meteohub,2013-09-04 17:36:00,
2013-09-04 13:41:00,71.4,57.7,29.86,North,353,2.0,12.0,62,0.00,,,0.00,meteohub,2013-09-04 17:41:00,
2013-09-04 13:46:00,71.8,56.7,29.86,SE,126,0.0,12.0,59,0.00,,,0.00,meteohub,2013-09-04 17:46:00,
2013-09-04 13:51:00,72.1,56.5,29.85,West,260,6.0,12.0,58,0.00,,,0.00,meteohub,2013-09-04 17:51:00,
2013-09-04 13:56:00,72.0,56.8,29.86,NNW,332,3.0,14.0,59,0.00,,,0.00,meteohub,2013-09-04 17:56:00,
2013-09-04 14:01:00,71.8,56.7,29.86,NNW,329,2.0,14.0,59,0.00,,,0.00,meteohub,2013-09-04 18:01:00,
2013-09-04 14:06:00,71.8,56.1,29.86,NNW,347,4.0,14.0,58,0.00,,,0.00,meteohub,2013-09-04 18:06:00,
2013-09-04 14:11:00,71.2,56.7,29.86,NNW,344,4.0,14.0,60,0.00,,,0.00,meteohub,2013-09-04 18:11:00,
2013-09-04 14:16:00,71.1,56.5,29.86,NW,305,7.0,11.0,60,0.00,,,0.00,meteohub,2013-09-04 18:16:00,
2013-09-04 14:21:00,70.9,58.1,29.86,NW,318,5.0,10.0,64,0.00,,,0.00,meteohub,2013-09-04 18:21:00,
2013-09-04 14:26:00,70.9,57.2,29.86,North,349,5.0,8.0,62,0.00,,,0.00,meteohub,2013-09-04 18:26:00,
2013-09-04 14:31:00,71.1,57.4,29.86,NW,322,5.0,10.0,62,0.00,,,0.00,meteohub,2013-09-04 18:31:00,
2013-09-04 14:36:00,71.4,57.7,29.85,NNW,335,3.0,12.0,62,0.00,,,0.00,meteohub,2013-09-04 18:36:00,
2013-09-04 14:41:00,72.0,58.3,29.85,WNW,288,2.0,12.0,62,0.00,,,0.00,meteohub,2013-09-04 18:41:00,
2013-09-04 14:46:00,72.1,57.6,29.85,NNW,348,0.0,12.0,60,0.00,,,0.00,meteohub,2013-09-04 18:46:00,
2013-09-04 14:51:00,72.7,58.5,29.85,NNW,335,1.0,11.0,61,0.00,,,0.00,meteohub,2013-09-04 18:51:00,
2013-09-04 14:56:00,72.9,57.7,29.85,WNW,301,3.0,4.0,59,0.00,,,0.00,meteohub,2013-09-04 18:56:00,
2013-09-04 15:01:00,73.0,57.4,29.85,NNE,32,0.0,8.0,58,0.00,,,0.00,meteohub,2013-09-04 19:01:00,
2013-09-04 15:06:00,73.2,59.0,29.84,NNW,345,0.0,8.0,61,0.00,,,0.00,meteohub,2013-09-04 19:06:00,
2013-09-04 15:11:00,73.9,58.6,29.84,NNE,14,2.0,8.0,59,0.00,,,0.00,meteohub,2013-09-04 19:11:00,
2013-09-04 15:16:00,73.8,58.1,29.84,NNW,347,4.0,6.0,58,0.00,,,0.00,meteohub,2013-09-04 19:16:00,
2013-09-04 15:21:00,73.2,58.5,29.85,NW,320,1.0,11.0,60,0.00,,,0.00,meteohub,2013-09-04 19:21:00,
2013-09-04 15:26:00,72.9,57.7,29.84,NW,324,2.0,11.0,59,0.00,,,0.00,meteohub,2013-09-04 19:26:00,
2013-09-04 15:31:00,73.0,57.9,29.84,NW,326,8.0,10.0,59,0.00,,,0.00,meteohub,2013-09-04 19:31:00,
2013-09-04 15:36:00,72.7,57.6,29.84,NNW,340,3.0,11.0,59,0.00,,,0.00,meteohub,2013-09-04 19:36:00,
2013-09-04 15:41:00,72.9,57.2,29.84,West,269,1.0,11.0,58,0.00,,,0.00,meteohub,2013-09-04 19:41:00,
2013-09-04 15:46:00,73.0,57.9,29.84,NNW,339,9.0,11.0,59,0.00,,,0.00,meteohub,2013-09-04 19:46:00,
2013-09-04 15:51:00,73.0,57.9,29.84,WNW,299,5.0,12.0,59,0.00,,,0.00,meteohub,2013-09-04 19:51:00,
2013-09-04 15:56:00,73.2,56.7,29.84,NNW,336,4.0,12.0,56,0.00,,,0.00,meteohub,2013-09-04 19:56:00,
2013-09-04 16:01:00,72.9,56.7,29.84,NW,324,10.0,12.0,57,0.00,,,0.00,meteohub,2013-09-04 20:01:00,
2013-09-04 16:06:00,72.9,56.7,29.84,NNW,337,3.0,12.0,57,0.00,,,0.00,meteohub,2013-09-04 20:06:00,
2013-09-04 16:11:00,72.9,55.8,29.85,West,275,4.0,12.0,55,0.00,,,0.00,meteohub,2013-09-04 20:11:00,
2013-09-04 16:16:00,72.9,57.2,29.84,NNW,336,5.0,12.0,58,0.00,,,0.00,meteohub,2013-09-04 20:16:00,
2013-09-04 16:21:00,72.9,56.3,29.85,North,11,5.0,12.0,56,0.00,,,0.00,meteohub,2013-09-04 20:21:00,
2013-09-04 16:26:00,73.0,57.9,29.85,NNW,334,7.0,12.0,59,0.00,,,0.00,meteohub,2013-09-04 20:26:00,
2013-09-04 16:31:00,73.0,56.8,29.85,NW,305,5.0,10.0,57,0.00,,,0.00,meteohub,2013-09-04 20:31:00,
2013-09-04 16:36:00,73.0,58.3,29.84,WNW,302,4.0,10.0,60,0.00,,,0.00,meteohub,2013-09-04 20:36:00,
2013-09-04 16:41:00,73.0,56.8,29.84,WSW,245,0.0,10.0,57,0.00,,,0.00,meteohub,2013-09-04 20:41:00,
2013-09-04 16:46:00,73.4,57.2,29.84,NW,322,7.0,10.0,57,0.00,,,0.00,meteohub,2013-09-04 20:46:00,
2013-09-04 16:51:00,73.2,57.0,29.84,NW,307,7.0,9.0,57,0.00,,,0.00,meteohub,2013-09-04 20:51:00,
2013-09-04 16:56:00,73.0,56.8,29.84,SW,220,2.0,9.0,57,0.00,,,0.00,meteohub,2013-09-04 20:56:00,
2013-09-04 17:01:00,73.0,57.4,29.84,North,1,0.0,9.0,58,0.00,,,0.00,meteohub,2013-09-04 21:01:00,
2013-09-04 17:06:00,73.2,59.4,29.84,SE,135,2.0,8.0,62,0.00,,,0.00,meteohub,2013-09-04 21:06:00,
2013-09-04 17:11:00,73.2,57.6,29.84,SW,217,1.0,6.0,58,0.00,,,0.00,meteohub,2013-09-04 21:11:00,
2013-09-04 17:16:00,73.2,58.1,29.84,SE,146,2.0,9.0,59,0.00,,,0.00,meteohub,2013-09-04 21:16:00,
2013-09-04 17:21:00,73.0,59.2,29.84,North,351,2.0,9.0,62,0.00,,,0.00,meteohub,2013-09-04 21:21:00,
2013-09-04 17:26:00,72.9,59.9,29.84,SSE,147,3.0,6.0,64,0.00,,,0.00,meteohub,2013-09-04 21:26:00,
2013-09-04 17:31:00,72.3,59.0,29.85,NNW,346,0.0,3.0,63,0.00,,,0.00,meteohub,2013-09-04 21:31:00,
2013-09-04 17:36:00,72.3,59.0,29.85,NNW,338,2.0,4.0,63,0.00,,,0.00,meteohub,2013-09-04 21:36:00,
2013-09-04 17:41:00,72.1,60.1,29.84,NNW,339,0.0,4.0,66,0.00,,,0.00,meteohub,2013-09-04 21:41:00,
2013-09-04 17:46:00,71.8,58.1,29.84,NW,316,1.0,4.0,62,0.00,,,0.00,meteohub,2013-09-04 21:46:00,
2013-09-04 17:51:00,71.8,60.3,29.85,North,1,0.0,4.0,67,0.00,,,0.00,meteohub,2013-09-04 21:51:00,
2013-09-04 17:56:00,71.4,59.5,29.85,SW,218,1.0,3.0,66,0.00,,,0.00,meteohub,2013-09-04 21:56:00,
2013-09-04 18:01:00,71.2,59.7,29.85,NW,310,0.0,3.0,67,0.00,,,0.00,meteohub,2013-09-04 22:01:00,
2013-09-04 18:06:00,70.9,61.0,29.84,NW,310,0.0,3.0,71,0.00,,,0.00,meteohub,2013-09-04 22:06:00,
2013-09-04 18:11:00,70.5,60.6,29.84,SE,130,2.0,3.0,71,0.00,,,0.00,meteohub,2013-09-04 22:11:00,
2013-09-04 18:16:00,70.2,59.9,29.84,ESE,108,0.0,6.0,70,0.00,,,0.00,meteohub,2013-09-04 22:16:00,
2013-09-04 18:21:00,69.6,59.4,29.84,ESE,108,0.0,6.0,70,0.00,,,0.00,meteohub,2013-09-04 22:21:00,
2013-09-04 18:26:00,69.4,58.8,29.84,ESE,108,0.0,6.0,69,0.00,,,0.00,meteohub,2013-09-04 22:26:00,
2013-09-04 18:31:00,69.1,60.1,29.84,ESE,108,0.0,2.0,73,0.00,,,0.00,meteohub,2013-09-04 22:31:00,
2013-09-04 18:36:00,68.7,60.4,29.84,NNW,328,1.0,3.0,75,0.00,,,0.00,meteohub,2013-09-04 22:36:00,
2013-09-04 18:41:00,68.5,60.6,29.84,NNW,327,0.0,3.0,76,0.00,,,0.00,meteohub,2013-09-04 22:41:00,
2013-09-04 18:46:00,68.2,60.6,29.84,ESE,108,2.0,3.0,77,0.00,,,0.00,meteohub,2013-09-04 22:46:00,
2013-09-04 18:51:00,67.8,59.9,29.84,ESE,114,1.0,3.0,76,0.00,,,0.00,meteohub,2013-09-04 22:51:00,
2013-09-04 18:56:00,67.6,60.3,29.83,ESE,114,0.0,3.0,77,0.00,,,0.00,meteohub,2013-09-04 22:56:00,
2013-09-04 19:01:00,67.5,60.8,29.84,ESE,118,0.0,3.0,79,0.00,,,0.00,meteohub,2013-09-04 23:01:00,
2013-09-04 19:06:00,67.3,60.3,29.84,East,81,1.0,3.0,78,0.00,,,0.00,meteohub,2013-09-04 23:06:00,
2013-09-04 19:11:00,66.9,58.8,29.84,East,81,0.0,3.0,75,0.00,,,0.00,meteohub,2013-09-04 23:11:00,
2013-09-04 19:16:00,66.7,60.1,29.84,NW,306,0.0,2.0,79,0.00,,,0.00,meteohub,2013-09-04 23:16:00,
2013-09-04 19:21:00,66.6,61.0,29.84,NW,306,0.0,5.0,82,0.00,,,0.00,meteohub,2013-09-04 23:21:00,
2013-09-04 19:26:00,66.2,60.6,29.85,NW,314,0.0,5.0,82,0.00,,,0.00,meteohub,2013-09-04 23:26:00,
2013-09-04 19:31:00,65.8,60.3,29.84,NW,314,0.0,3.0,82,0.00,,,0.00,meteohub,2013-09-04 23:31:00,
2013-09-04 19:36:00,65.8,60.6,29.85,NNW,333,1.0,3.0,83,0.00,,,0.00,meteohub,2013-09-04 23:36:00,
2013-09-04 19:41:00,65.5,59.9,29.85,NNW,333,0.0,3.0,82,0.00,,,0.00,meteohub,2013-09-04 23:41:00,
2013-09-04 19:46:00,65.5,60.4,29.85,NNW,333,0.0,3.0,84,0.00,,,0.00,meteohub,2013-09-04 23:46:00,
2013-09-04 19:51:00,65.1,60.1,29.85,NNW,333,0.0,2.0,84,0.00,,,0.00,meteohub,2013-09-04 23:51:00,
2013-09-04 19:56:00,65.1,60.1,29.86,NNW,333,0.0,2.0,84,0.00,,,0.00,meteohub,2013-09-04 23:56:00,
2013-09-04 20:01:00,64.9,60.3,29.86,NNW,334,0.0,3.0,85,0.00,,,0.00,meteohub,2013-09-05 00:01:00,
2013-09-04 20:06:00,64.8,59.9,29.86,NNW,334,0.0,3.0,84,0.00,,,0.00,meteohub,2013-09-05 00:06:00,
2013-09-04 20:11:00,64.8,60.1,29.87,NNW,330,0.0,3.0,85,0.00,,,0.00,meteohub,2013-09-05 00:11:00,
2013-09-04 20:16:00,64.6,59.7,29.87,ESE,118,0.0,2.0,84,0.00,,,0.00,meteohub,2013-09-05 00:16:00,
2013-09-04 20:21:00,64.6,59.9,29.87,ESE,118,0.0,2.0,85,0.00,,,0.00,meteohub,2013-09-05 00:21:00,
2013-09-04 20:26:00,64.6,60.3,29.87,NNE,17,0.0,0.0,86,0.00,,,0.00,meteohub,2013-09-05 00:26:00,
2013-09-04 20:31:00,64.6,60.3,29.87,NNW,333,0.0,3.0,86,0.00,,,0.00,meteohub,2013-09-05 00:31:00,
2013-09-04 20:36:00,64.6,59.9,29.87,NNW,333,0.0,3.0,85,0.00,,,0.00,meteohub,2013-09-05 00:36:00,
2013-09-04 20:41:00,64.6,60.6,29.87,NNW,341,0.0,3.0,87,0.00,,,0.00,meteohub,2013-09-05 00:41:00,
2013-09-04 20:46:00,64.6,60.3,29.87,NNW,342,0.0,3.0,86,0.00,,,0.00,meteohub,2013-09-05 00:46:00,
2013-09-04 20:51:00,64.6,59.9,29.87,WNW,291,0.0,3.0,85,0.00,,,0.00,meteohub,2013-09-05 00:51:00,
2013-09-04 20:56:00,64.6,59.7,29.88,WNW,291,0.0,3.0,84,0.00,,,0.00,meteohub,2013-09-05 00:56:00,
2013-09-04 21:01:00,64.6,59.4,29.88,WNW,291,0.0,3.0,83,0.00,,,0.00,meteohub,2013-09-05 01:01:00,
2013-09-04 21:06:00,64.6,59.4,29.88,WNW,291,0.0,0.0,83,0.00,,,0.00,meteohub,2013-09-05 01:06:00,
2013-09-04 21:11:00,64.4,59.5,29.88,SSW,201,1.0,3.0,84,0.00,,,0.00,meteohub,2013-09-05 01:11:00,
2013-09-04 21:16:00,64.2,57.6,29.88,NW,307,1.0,3.0,79,0.00,,,0.00,meteohub,2013-09-05 01:16:00,
2013-09-04 21:21:00,64.4,58.5,29.88,SSW,195,0.0,4.0,81,0.00,,,0.00,meteohub,2013-09-05 01:21:00,
2013-09-04 21:26:00,64.4,58.1,29.88,SE,130,0.0,4.0,80,0.00,,,0.00,meteohub,2013-09-05 01:26:00,
2013-09-04 21:31:00,64.4,56.7,29.88,ESE,123,0.0,3.0,76,0.00,,,0.00,meteohub,2013-09-05 01:31:00,
2013-09-04 21:36:00,64.6,57.2,29.87,ESE,119,0.0,5.0,77,0.00,,,0.00,meteohub,2013-09-05 01:36:00,
2013-09-04 21:41:00,64.8,57.7,29.88,ESE,123,0.0,5.0,78,0.00,,,0.00,meteohub,2013-09-05 01:41:00,
2013-09-04 21:46:00,64.9,57.9,29.88,ESE,123,0.0,5.0,78,0.00,,,0.00,meteohub,2013-09-05 01:46:00,
2013-09-04 21:51:00,64.9,57.6,29.88,ESE,123,0.0,3.0,77,0.00,,,0.00,meteohub,2013-09-05 01:51:00,
2013-09-04 21:56:00,64.8,57.4,29.88,ESE,123,0.0,2.0,77,0.00,,,0.00,meteohub,2013-09-05 01:56:00,
2013-09-04 22:01:00,64.8,57.0,29.88,ESE,123,0.0,1.0,76,0.00,,,0.00,meteohub,2013-09-05 02:01:00,
2013-09-04 22:06:00,64.8,57.4,29.88,ESE,123,0.0,1.0,77,0.00,,,0.00,meteohub,2013-09-05 02:06:00,
2013-09-04 22:11:00,64.8,57.0,29.88,ESE,123,0.0,1.0,76,0.00,,,0.00,meteohub,2013-09-05 02:11:00,
2013-09-04 22:16:00,64.8,57.4,29.88,ESE,123,0.0,1.0,77,0.00,,,0.00,meteohub,2013-09-05 02:16:00,
2013-09-04 22:21:00,64.6,57.6,29.88,ESE,123,0.0,1.0,78,0.00,,,0.00,meteohub,2013-09-05 02:21:00,
2013-09-04 22:26:00,64.4,58.1,29.88,ESE,123,0.0,1.0,80,0.00,,,0.00,meteohub,2013-09-05 02:26:00,
2013-09-04 22:31:00,64.2,58.3,29.88,NNW,330,3.0,3.0,81,0.00,,,0.00,meteohub,2013-09-05 02:31:00,
2013-09-04 22:36:00,64.2,58.6,29.88,NNW,334,0.0,5.0,82,0.00,,,0.00,meteohub,2013-09-05 02:36:00,
2013-09-04 22:41:00,64.0,58.8,29.88,NNW,334,0.0,5.0,83,0.00,,,0.00,meteohub,2013-09-05 02:41:00,
2013-09-04 22:46:00,63.9,58.3,29.88,NNW,334,0.0,5.0,82,0.00,,,0.00,meteohub,2013-09-05 02:46:00,
2013-09-04 22:51:00,63.9,59.0,29.88,NNW,334,0.0,2.0,84,0.00,,,0.00,meteohub,2013-09-05 02:51:00,
2013-09-04 22:56:00,63.7,58.8,29.88,NNW,334,0.0,1.0,84,0.00,,,0.00,meteohub,2013-09-05 02:56:00,
2013-09-04 23:01:00,63.3,58.1,29.88,NNW,334,0.0,0.0,83,0.00,,,0.00,meteohub,2013-09-05 03:01:00,
2013-09-04 23:06:00,63.1,58.6,29.88,NNW,334,0.0,1.0,85,0.00,,,0.00,meteohub,2013-09-05 03:06:00,
2013-09-04 23:11:00,63.1,58.6,29.88,NNW,334,0.0,1.0,85,0.00,,,0.00,meteohub,2013-09-05 03:11:00,
2013-09-04 23:16:00,63.1,58.3,29.87,NNW,334,0.0,1.0,84,0.00,,,0.00,meteohub,2013-09-05 03:16:00,
2013-09-04 23:21:00,63.0,58.1,29.87,NNW,334,0.0,0.0,84,0.00,,,0.00,meteohub,2013-09-05 03:21:00,
2013-09-04 23:26:00,63.0,58.1,29.87,NNW,334,2.0,0.0,84,0.00,,,0.00,meteohub,2013-09-05 03:26:00,
2013-09-04 23:31:00,63.0,58.5,29.87,NNW,334,0.0,2.0,85,0.00,,,0.00,meteohub,2013-09-05 03:31:00,
2013-09-04 23:36:00,62.8,58.3,29.87,NNW,334,0.0,2.0,85,0.00,,,0.00,meteohub,2013-09-05 03:36:00,
2013-09-04 23:41:00,62.8,57.9,29.87,NNW,334,0.0,2.0,84,0.00,,,0.00,meteohub,2013-09-05 03:41:00,
2013-09-04 23:46:00,62.8,58.5,29.86,NNW,334,0.0,1.0,86,0.00,,,0.00,meteohub,2013-09-05 03:46:00,
2013-09-04 23:51:00,62.4,57.9,29.86,NNW,334,0.0,1.0,85,0.00,,,0.00,meteohub,2013-09-05 03:51:00,
2013-09-04 23:56:00,62.4,57.9,29.86,NNW,334,0.0,1.0,85,0.00,,,0.00,meteohub,2013-09-05 03:56:00,